Hoehne, CO

8:16 PM MST on February 19, 2017 (GMT -0700)
Stokes

Weather History for KTAD - November, 2012

Change the Weather History Date:

Monday, November 12, 2012

  Actual Average Record
Temperature  
Mean Temperature 32 °F 42 °F  
Max Temperature 51 °F 58 °F 79 °F (1971)
Min Temperature 12 °F 27 °F 4 °F (2014)
Degree Days  
Heating Degree Days 33 23  
Month to date heating degree days 205 243  
Since 1 July heating degree days 673 744  
Cooling Degree Days 0 0  
Month to date cooling degree days 0 0  
Year to date cooling degree days 1175 719  
Moisture  
Dew Point -11 °F    
Average Humidity 24    
Maximum Humidity 42    
Minimum Humidity 5    
Precipitation  
Precipitation 0.00 in 0.02 in 0.23 in (1972)
Month to date precipitation T  
Sea Level Pressure  
Sea Level Pressure 30.33 in    
Wind  
Wind Speed 8 mph (WSW)    
Max Wind Speed 15 mph    
Max Gust Speed 17 mph    
Visibility 10 miles    
Events      
T = Trace of Precipitation, MM = Missing Value Source: NWS Daily Summary

Daily Weather History Graph

Daily Weather History Graph

Search for Another Location

Airport or City:

Trip Planner

Search our weather history database for the weather conditions in past years. The results will help you decide how hot, cold, wet, or windy it might be!

Date:

Astronomy

Nov. 12, 2012 Rise Set
Actual Time 6:33 AM MST 4:48 PM MST
Civil Twilight 6:06 AM MST 5:16 PM MST
Nautical Twilight 5:34 AM MST 5:47 PM MST
Astronomical Twilight 5:04 AM MST 6:18 PM MST
Moon 5:03 AM MST (11/12) 3:55 PM MST (11/12)
Length of Visible Light 11h 10m
Length of Day
10h 15m
Waning Crescent, 2% of the Moon is Illuminated
Nov 12
Waning Crescent
Nov 13
New
Nov 20
First Quarter
Nov 28
Full
Dec 6
Last Quarter

Hourly Weather History & Observations

Time (MST) Temp. Windchill Dew Point Humidity Pressure Visibility Wind Dir Wind Speed Gust Speed Precip Events Conditions
12:54 AM 16.0 °F 5.3 °F -7.1 °F 36% 30.31 in 10.0 mi West 8.1 mph - N/A   Clear
1:54 AM 15.1 °F 2.5 °F -7.1 °F 37% 30.33 in 10.0 mi WSW 10.4 mph - N/A   Clear
2:54 AM 17.1 °F 5.0 °F -7.1 °F 34% 30.31 in 10.0 mi West 10.4 mph - N/A   Clear
3:54 AM 15.1 °F 7.7 °F -7.1 °F 37% 30.32 in 10.0 mi West 4.6 mph - N/A   Clear
4:54 AM 17.1 °F 4.3 °F -7.1 °F 34% 30.36 in 10.0 mi WSW 11.5 mph - N/A   Clear
5:54 AM 14.0 °F 2.9 °F -8.0 °F 37% 30.41 in 10.0 mi WNW 8.1 mph - N/A   Clear
6:54 AM 12.0 °F -0.4 °F -8.0 °F 41% 30.44 in 10.0 mi West 9.2 mph - N/A   Clear
7:54 AM 23.0 °F 12.4 °F -5.1 °F 29% 30.44 in 10.0 mi West 10.4 mph - N/A   Clear
8:54 AM 33.1 °F 24.9 °F -8.0 °F 17% 30.39 in 10.0 mi WSW 10.4 mph - N/A   Clear
9:54 AM 39.0 °F - -11.0 °F 12% 30.36 in 10.0 mi Calm Calm - N/A   Clear
10:54 AM 42.1 °F 38.4 °F -9.9 °F 11% 30.35 in 10.0 mi SE 5.8 mph - N/A   Clear
11:54 AM 46.9 °F - -14.1 °F 7% 30.34 in 10.0 mi Variable 4.6 mph - N/A   Clear
12:54 PM 50.0 °F - -13.0 °F 7% 30.30 in 10.0 mi Variable 5.8 mph - N/A   Clear
1:54 PM 51.1 °F - -18.0 °F 5% 30.30 in 10.0 mi Variable 4.6 mph - N/A   Clear
2:54 PM 51.1 °F - -17.0 °F 6% 30.28 in 10.0 mi ESE 10.4 mph - N/A   Clear
3:54 PM 50.0 °F - -18.9 °F 5% 30.29 in 10.0 mi ESE 6.9 mph - N/A   Clear
4:54 PM 43.0 °F 40.3 °F -20.0 °F 6% 30.31 in 10.0 mi East 4.6 mph - N/A   Clear
5:54 PM 41.0 °F 39.0 °F -20.0 °F 7% 30.34 in 10.0 mi East 3.5 mph - N/A   Clear
6:54 PM 28.0 °F 20.8 °F -16.1 °F 14% 30.41 in 10.0 mi WNW 6.9 mph - N/A   Clear
7:54 PM 32.0 °F 25.6 °F -13.0 °F 14% 30.35 in 10.0 mi West 6.9 mph - N/A   Clear
8:54 PM 33.1 °F 24.9 °F -9.0 °F 16% 30.30 in 10.0 mi WSW 10.4 mph - N/A   Clear
9:54 PM 36.0 °F 27.1 °F -9.0 °F 14% 30.26 in 10.0 mi WSW 13.8 mph - N/A   Clear
10:54 PM 34.0 °F 26.0 °F -9.0 °F 16% 30.25 in 10.0 mi WSW 10.4 mph - N/A   Clear
11:54 PM 36.0 °F 27.1 °F -8.0 °F 15% 30.20 in 10.0 mi WSW 13.8 mph - N/A   Clear